YPAD

Adelaide International Airport

Airport
ICAO code
YPAD
IATA Code
ADL
Summary
ICAO Region
APAC
ICAO Territory
Location

, South Australia

Serving
Adelaide
Elevation
20 ft
Coordinates
34° 56' 42" S , 138° 31' 50" E
Metar
YPAD 240630Z 36020KT CAVOK 20/03 Q1005

SKYbrary Partners:

Safety knowledge contributed by: